TimeEDT,TemperatureF,Dew PointF,Humidity,Sea Level PressureIn,VisibilityMPH,Wind Direction,Wind SpeedMPH,Gust SpeedMPH,PrecipitationIn,Events,Conditions,WindDirDegrees,DateUTC
12:54 AM,45.0,37.0,74,30.17,10.0,NE,4.6,-,N/A,,Clear,50,2012-10-28 04:54:00
1:54 AM,42.1,35.1,76,30.17,10.0,NNE,5.8,-,N/A,,Clear,30,2012-10-28 05:54:00
2:54 AM,41.0,35.1,79,30.16,10.0,NE,3.5,-,N/A,,Clear,40,2012-10-28 06:54:00
3:54 AM,41.0,35.1,79,30.17,10.0,NNE,3.5,-,N/A,,Clear,30,2012-10-28 07:54:00
4:18 AM,39.2,35.6,87,30.15,10.0,North,3.5,-,N/A,,Mostly Cloudy,10,2012-10-28 08:18:00
4:54 AM,39.9,36.0,86,30.17,10.0,NNE,4.6,-,N/A,,Overcast,20,2012-10-28 08:54:00
5:54 AM,41.0,37.0,86,30.17,10.0,North,6.9,-,N/A,,Overcast,10,2012-10-28 09:54:00
6:54 AM,42.1,39.0,89,30.17,10.0,North,4.6,-,N/A,,Overcast,10,2012-10-28 10:54:00
7:54 AM,44.1,39.9,85,30.18,10.0,NNE,6.9,-,N/A,,Overcast,20,2012-10-28 11:54:00
8:36 AM,44.6,41.0,87,30.16,10.0,NNE,5.8,-,N/A,,Overcast,20,2012-10-28 12:36:00
8:54 AM,46.9,42.1,83,30.19,10.0,North,6.9,-,N/A,,Overcast,10,2012-10-28 12:54:00
9:54 AM,48.9,43.0,80,30.18,10.0,NE,4.6,-,N/A,,Overcast,40,2012-10-28 13:54:00
10:54 AM,51.1,44.1,77,30.17,10.0,NNE,8.1,-,N/A,,Overcast,30,2012-10-28 14:54:00
11:21 AM,51.8,44.6,76,30.15,10.0,NNE,8.1,-,N/A,,Overcast,30,2012-10-28 15:21:00
11:54 AM,53.1,44.1,71,30.17,10.0,NE,6.9,-,N/A,,Overcast,40,2012-10-28 15:54:00
12:54 PM,55.0,45.0,69,30.14,10.0,NNE,9.2,-,N/A,,Overcast,20,2012-10-28 16:54:00
1:54 PM,55.0,45.0,69,30.13,10.0,NNE,10.4,-,N/A,,Overcast,20,2012-10-28 17:54:00
2:25 PM,55.4,44.6,67,30.11,10.0,NNE,11.5,-,N/A,,Scattered Clouds,20,2012-10-28 18:25:00
2:54 PM,55.9,45.0,67,30.13,10.0,North,9.2,-,N/A,,Clear,10,2012-10-28 18:54:00
3:54 PM,54.0,44.1,69,30.12,10.0,North,13.8,-,N/A,,Clear,10,2012-10-28 19:54:00
4:54 PM,52.0,44.1,74,30.12,10.0,NNE,11.5,-,N/A,,Clear,20,2012-10-28 20:54:00
5:54 PM,50.0,43.0,77,30.13,10.0,NNE,9.2,-,N/A,,Clear,20,2012-10-28 21:54:00
6:45 PM,48.2,42.8,82,30.10,10.0,NNE,9.2,-,N/A,,Mostly Cloudy,30,2012-10-28 22:45:00
6:54 PM,48.9,43.0,80,30.12,10.0,NNE,9.2,-,N/A,,Overcast,20,2012-10-28 22:54:00
7:54 PM,50.0,43.0,77,30.11,10.0,NNE,8.1,-,N/A,,Overcast,20,2012-10-28 23:54:00
8:54 PM,48.9,44.1,83,30.11,10.0,North,6.9,-,N/A,,Overcast,360,2012-10-29 00:54:00
9:54 PM,50.0,45.0,83,30.10,10.0,NNE,9.2,-,N/A,,Overcast,30,2012-10-29 01:54:00
10:54 PM,51.1,46.0,83,30.09,10.0,NE,9.2,-,N/A,,Overcast,40,2012-10-29 02:54:00
11:54 PM,51.1,46.0,83,30.08,10.0,NE,8.1,-,N/A,,Overcast,40,2012-10-29 03:54:00